Regional Weather Roundup
Issued by NWS

Home | Current Version | Previous Version | Text Only | Print | Product List | Glossary Off
Versions: 1 2 3 4 5 6 7 8 9 10 11 12 13 14 15 16 17 18 19 20 21 22 23 24 25 26 27 28 29 30 31 32 33 34 35 36 37 38 39 40 41 42 43 44 45 46 47 48 49 50

000
ASUS43 KLOT 290203
RWRIL

ILLINOIS REGIONAL WEATHER ROUNDUP
NATIONAL WEATHER SERVICE CHICAGO/ROMEOVILLE IL
900 PM CDT THU APR 28 2016

NOTE: "FAIR" INDICATES FEW OR NO CLOUDS BELOW 12,000 FEET WITH NO
SIGNIFICANT WEATHER AND/OR OBSTRUCTIONS TO VISIBILITY.

* THESE STATIONS ARE NOT UNDER NWS QUALITY CONTROL. THEY ALSO MAY NOT
  REPORT WEATHER SUCH AS PRECIPITATION OR FOG.

ILZ001-002-007-009-015-016-024-290300-
NORTHWEST ILLINOIS

CITY           SKY/WX    TMP DP  RH WIND       PRES   REMARKS
MOLINE         CLOUDY    53  49  86 E8        29.98R
STERLING*      CLOUDY    46  45  93 E10       30.00R
$$

ILZ003-004-008-010-011-017-018-290300-
NORTH CENTRAL ILLINOIS

CITY           SKY/WX    TMP DP  RH WIND       PRES   REMARKS
ROCKFORD       CLOUDY    43  40  89 NE9       30.02R
FREEPORT*      CLOUDY    42  40  92 NE8       30.02R
DE KALB*       CLOUDY    43  41  94 NE8       30.00R FOG
$$

ILZ005-006-012>014-019>023-290300-
NORTHEAST ILLINOIS

CITY           SKY/WX    TMP DP  RH WIND       PRES   REMARKS
CHICAGO-OHARE  CLOUDY    43  40  89 N8        29.99R
CHICAGO-MIDWAY CLOUDY    46  40  79 N9        29.99R
AURORA         CLOUDY    45  42  89 NE8       30.00R FOG
LANSING*       CLOUDY    46  42  86 N6        29.99R
WAUKEGAN       CLOUDY    41  39  93 N6        30.01R
DUPAGE AIRPORT CLOUDY    44  39  82 N7        29.99R
WHEELING       CLOUDY    42  39  89 N8        30.01R
NORTHERLY ISL    N/A     43  40  89 N9          N/A
NORTHERLY ISL    N/A     43  40  89 N9          N/A
$$

LMZ740>746-290300-
SOUTHERN LAKE MICHIGAN

STATION/POSITION SKY/WX   TEMP    WIND        PRES    VSBY  WAVE
                          AIR SEA DIR/SP/G                  HT/PER
                          (F)     (DEG/KT/KT) (MB)    (MI)  (FT/S)
SOUTHERN BUOY              40 40   70/ 14/ 16 1015.2          2/ 4
HARRISON CRIB              44     360/  9/ 11   N/A
BURNHAM HARBOR             44      10/  8/ 11   N/A
CALUMET HARBOR             44                 1014.3R
BURNS HARBOR               46     360/  4/  6 1014.9R
MICHIGAN CITY              47      30/  4/  4   N/A
ST. JOSEPH                 51 47  270/  2/ 10   N/A           1/ 5
$$

ILZ025>027-034>036-040-047-049-050-058-095>099-290300-
WEST-CENTRAL ILLINOIS

CITY           SKY/WX    TMP DP  RH WIND       PRES   REMARKS
QUINCY         CLOUDY    57  47  69 W7        30.00R
MACOMB*        CLOUDY    56  49  79 W8        30.01R
PITTSFIELD*    CLOUDY    60  49  69 W5        30.02R
$$

ILZ028>032-037-038-041>044-048-051>054-059>061-290300-
CENTRAL ILLINOIS

CITY           SKY/WX    TMP DP  RH WIND       PRES   REMARKS
BLOOMINGTON    CLOUDY    56  49  77 W9        30.00R
DECATUR        CLOUDY    60  47  61 W8        29.99R
PEORIA         CLOUDY    56  47  71 NW3       29.99R
SPRINGFIELD    CLOUDY    60  49  66 W6        30.00R
TAYLORVILLE    NOT AVBL
$$

ILZ033-039-045-046-055>057-062-063-290300-
EAST-CENTRAL ILLINOIS

CITY           SKY/WX    TMP DP  RH WIND       PRES   REMARKS
CHAMPAIGN      PTCLDY    54  47  77 NW9       29.98R
MATTOON        CLEAR     57  50  77 NW9       29.98R
$$

ILZ079-100>102-290300-
SOUTHWEST ILLINOIS

CITY           SKY/WX    TMP DP  RH WIND       PRES   REMARKS
CAHOKIA*       CLEAR     64  49  57 N14       29.99R
SPARTA*        CLEAR     65  52  62 CALM      29.98R
$$

ILZ064>066-069>071-074>076-080>082-084>086-088>090-092>094-290300-
SOUTH-CENTRAL ILLINOIS

CITY           SKY/WX    TMP DP  RH WIND       PRES   REMARKS
CARBONDALE     CLEAR     62  54  74 CALM      29.96R
MT. VERNON     CLEAR     57  48  72 CALM      29.97R
SALEM*         CLEAR     61  55  79 N5        29.97R
$$

ILZ067-068-072-073-078-083-087-091-290300-
SOUTHEAST ILLINOIS

CITY           SKY/WX    TMP DP  RH WIND       PRES   REMARKS
LAWRENCEVILLE  CLEAR     62  53  72 NW8       29.96R
FLORA*         CLEAR     64  55  71 NW3       29.97R
HARRISBURG*    CLEAR     64  53  68 NW5       29.96R
ROBINSON*      CLEAR     57  52  85 NW6       29.97R
$$

ABBREVIATIONS USED IN REMARKS
   TC - TEMPERATURE IN CELSIUS
  WCI - WIND CHILL INDEX
   HX - HEAT INDEX
  VSB - VISIBILITY
$$




USA.gov is the U.S. government's official web portal to all federal, state and local government web resources and services.